Lid_Strength_Index
3 2 2 2 2 2 2 2 2 2 2 1 1 1 1 1 1 2 5 4 3 -1 -0 3 4 4 5 6 6 6 8 9 10 9 9 7 7 5 5 6 5 5 5 4 3
3 3 3 2 2 2 2 2 2 2 2 1 1 1 1 1 2 4 1 -0 -1 -2 3 4 5 5 6 6 5 6 7 10 8 7 7 6 6 6 6 6 6 5 4 4 3
3 3 3 3 2 2 2 2 2 2 1 1 1 1 1 0 4 5 -2 -4 -3 -1 3 3 3 4 6 5 6 6 7 7 7 6 6 6 6 6 6 7 6 6 5 4 3
3 3 3 3 2 2 2 2 2 2 1 1 1 1 1 2 8 4 -1 -2 -1 1 3 4 4 5 6 7 6 7 6 6 6 6 6 7 6 7 6 6 5 4 4 4 4
3 3 3 3 3 2 2 2 2 2 2 2 1 1 1 5 5 2 -2 -1 2 2 4 4 5 5 7 6 6 6 7 6 6 6 6 6 6 6 6 5 4 3 3 4 3
3 3 3 3 3 2 2 2 2 2 2 2 1 1 3 7 3 2 2 3 3 3 3 3 4 4 6 6 6 6 6 6 6 6 6 7 6 6 6 4 4 4 4 3 3
3 3 3 3 3 2 2 2 2 2 2 1 0 0 4 6 2 2 2 3 3 3 4 3 3 4 5 6 5 6 7 7 7 6 7 6 7 7 5 4 4 4 3 3 2
3 3 3 3 3 2 2 2 3 2 1 1 0 1 5 2 1 2 2 3 3 3 3 3 3 4 5 5 6 8 7 9 7 7 7 7 9 6 5 5 5 5 4 3 2
3 3 3 3 3 2 2 3 2 2 1 1 2 3 6 2 4 3 2 4 3 3 3 3 3 5 5 7 8 8 9 9 8 6 7 7 8 6 4 5 5 5 4 3 3
3 3 3 3 3 3 3 3 2 2 1 1 2 4 4 5 4 3 3 3 4 4 5 5 5 6 5 7 10 10 10 9 9 7 7 7 7 6 5 5 5 4 4 4 3
3 3 3 3 3 3 3 2 3 3 3 5 5 5 5 3 3 4 3 4 4 5 7 6 7 8 8 7 8 8 9 9 8 7 8 8 8 6 5 5 6 4 4 4 3
3 3 3 3 3 3 2 3 4 3 6 4 5 5 4 3 6 5 4 5 6 7 6 7 8 7 7 7 8 8 9 9 8 7 8 8 8 6 6 6 5 5 5 4 3
4 3 3 3 3 2 2 3 1 2 4 5 5 5 5 4 6 6 5 5 7 8 8 8 8 7 8 8 8 8 9 9 10 8 7 8 8 7 7 6 5 4 4 4 4
4 3 3 4 3 1 3 2 1 2 7 8 6 5 4 4 7 5 4 5 7 8 8 8 7 8 8 9 8 10 8 9 9 9 11 7 12 8 7 6 5 5 4 4 3
4 4 3 4 1 2 3 1 1 2 14 7 6 3 5 6 6 6 4 5 8 8 8 8 8 8 9 8 8 9 7 8 8 8 9 9 11 9 7 7 6 5 4 4 3
4 4 3 1 -0 2 1 1 1 9 14 8 7 7 7 6 6 5 6 5 6 7 7 7 6 7 7 7 7 6 7 7 7 9 12 10 10 10 8 7 6 4 4 4 3
4 4 2 1 2 1 1 2 9 11 7 9 9 7 7 8 8 7 8 8 9 10 9 8 8 7 7 8 6 7 8 12 12 12 13 9 10 9 6 6 5 5 5 4 3
5 5 4 1 -0 0 1 5 11 9 9 7 8 8 9 8 8 8 8 8 7 8 9 10 11 9 7 7 8 8 9 11 16 14 13 9 12 9 6 5 5 5 4 4 3
5 -1 -1 1 1 1 4 8 9 9 8 9 8 9 9 8 8 8 8 9 8 7 10 10 11 7 6 6 6 8 10 7 11 10 13 11 9 7 6 6 5 5 5 4 3
-0 0 2 1 1 1 5 9 8 7 7 7 9 8 10 9 9 9 9 8 8 7 6 8 12 8 7 6 6 7 6 11 11 17 16 12 11 11 8 7 6 5 5 4 3
1 3 2 1 1 4 7 7 7 6 6 7 8 9 9 9 9 9 9 8 7 7 6 7 9 9 7 8 8 8 9 8 9 11 16 16 12 7 7 6 6 5 5 4 4
2 5 2 1 5 5 6 8 9 7 6 7 7 8 8 8 9 9 9 8 6 7 9 7 9 11 9 7 7 7 8 8 14 14 12 14 15 6 6 5 5 6 5 4 3
5 5 3 2 7 7 7 8 7 8 8 8 8 7 7 8 11 9 9 7 7 7 8 8 10 14 11 8 7 9 8 7 8 9 13 16 13 6 6 7 6 5 5 6 4
4 7 6 6 5 7 9 8 9 7 8 7 8 7 8 9 8 9 9 8 7 7 8 7 10 11 13 10 8 10 9 8 9 14 13 12 10 8 7 7 6 6 6 6 4
6 8 8 9 8 8 7 8 10 9 7 7 8 9 9 10 10 10 9 9 8 8 7 7 12 9 9 8 9 9 9 9 10 9 13 11 10 8 7 8 6 5 5 6 5
7 8 6 7 8 8 9 8 10 9 10 10 10 9 9 10 10 11 10 9 10 8 8 7 13 9 11 8 8 10 9 8 8 9 9 9 10 7 6 5 6 6 6 6 5
4 4 6 9 9 9 9 10 10 9 9 8 9 9 10 9 8 8 8 7 8 8 8 10 11 12 13 10 10 12 9 9 8 8 9 12 9 6 7 6 6 5 5 5 5